Location: Haut Kerinec
(48.0623°N, 4.4081°W)
Time: 01:49:25
(UTC+00:00)

SPOT 5 - Pass Details

Date: 01 June 2020
Orbit: 623 x 815 km, 98.3° (Epoch: 05 July)

Event Time Altitude Azimuth Distance (km) Brightness Sun altitude
Exits shadow 21:53:33 17° 165° (SSE) 1,937 4.5 -12.8°
Maximum altitude 21:57:44 89° 251° (WSW) 814 3.1 -13.2°
Drops below altitude 10° 22:03:08 10° 346° (NNW) 2,417 6.8 -13.7°
Sets 22:05:30 0° 347° (NNW) 3,354 7.9 -13.9°
